,,Stat6,,Stat2,,Stat8,,Stat9,,Stat10,,Wind1,,Wind1,
time,status,PA1M_AVG,status,PR1M_SUM,status,RH1M_AVG,status,SR1M_AVG,status,TA1M_AVG,status,W1dAve1m,status,W1sAve1m,
2005-11-15, 00:00:00,VALID,917.685,VALID,0,VALID,98.9881,VALID,-0.0339617,VALID,19.8347,VALID,354,VALID,0.385356,
2005-11-15, 00:01:00,VALID,917.673,VALID,0,VALID,99.0631,VALID,-0.0339617,VALID,19.8252,VALID,354,VALID,0.196837,
2005-11-15, 00:02:00,VALID,917.658,VALID,0,VALID,99.1267,VALID,-0.0509425,VALID,19.8255,VALID,354,VALID,0.0461483,
2005-11-15, 00:03:00,VALID,917.674,VALID,0,VALID,99.1254,VALID,-0.0339617,VALID,19.8352,VALID,354,VALID,0.0625,
2005-11-15, 00:04:00,VALID,917.684,VALID,0,VALID,99.1343,VALID,-0.0679233,VALID,19.8317,VALID,354,VALID,0.012429,
2005-11-15, 00:05:00,VALID,917.674,VALID,0,VALID,99.0618,VALID,-0.0509425,VALID,19.8325,VALID,354,VALID,0.204942,
2005-11-15, 00:06:00,VALID,917.667,VALID,0,VALID,99.072,VALID,-0.0339617,VALID,19.8218,VALID,354,VALID,0.402604,
2005-11-15, 00:07:00,VALID,917.657,VALID,0,VALID,99.0516,VALID,-0.0849042,VALID,19.8255,VALID,354,VALID,0.404726,
2005-11-15, 00:08:00,VALID,917.641,VALID,0,VALID,99.0567,VALID,-0.0339617,VALID,19.8287,VALID,359,VALID,0.567406,
2005-11-15, 00:09:00,VALID,917.614,VALID,0,VALID,98.9817,VALID,-0.0849042,VALID,19.8091,VALID,6,VALID,0.585756,
2005-11-15, 00:10:00,VALID,917.597,VALID,0,VALID,99.0911,VALID,-0.0679233,VALID,19.7897,VALID,13,VALID,0.702744,
2005-11-15, 00:11:00,VALID,917.583,VALID,0,VALID,99.1483,VALID,-0.0339617,VALID,19.7666,VALID,13,VALID,0.813408,
2005-11-15, 00:12:00,VALID,917.586,VALID,0,VALID,99.3149,VALID,-0.0339617,VALID,19.7445,VALID,18,VALID,0.829078,
2005-11-15, 00:13:00,VALID,917.585,VALID,0,VALID,99.517,VALID,-0.0849042,VALID,19.7614,VALID,21,VALID,0.768102,
2005-11-15, 00:14:00,VALID,917.581,VALID,0,VALID,99.6696,VALID,-0.0509425,VALID,19.7541,VALID,23,VALID,0.606001,
2005-11-15, 00:15:00,VALID,917.576,VALID,0,VALID,99.8159,VALID,-0.0509425,VALID,19.7743,VALID,17,VALID,0.948509,
2005-11-15, 00:16:00,VALID,917.566,VALID,0,VALID,99.8667,VALID,-0.0679233,VALID,19.774,VALID,19,VALID,0.854469,
2005-11-15, 00:17:00,VALID,917.561,VALID,0,VALID,99.9125,VALID,-0.0679233,VALID,19.7837,VALID,19,VALID,0.728198,
2005-11-15, 00:18:00,VALID,917.538,VALID,0,VALID,99.896,VALID,-0.0849042,VALID,19.7899,VALID,12,VALID,0.523785,
2005-11-15, 00:19:00,VALID,917.527,VALID,0,VALID,99.8782,VALID,-0.0849042,VALID,19.787,VALID,13,VALID,0.524503,
2005-11-15, 00:20:00,VALID,917.523,VALID,0,VALID,99.8769,VALID,-0.0679233,VALID,19.7832,VALID,14,VALID,0.648082,
2005-11-15, 00:21:00,VALID,917.498,VALID,0,VALID,99.9354,VALID,-0.101885,VALID,19.7996,VALID,15,VALID,0.609747,
2005-11-15, 00:22:00,VALID,917.483,VALID,0,VALID,99.9685,VALID,-0.0509425,VALID,19.8121,VALID,16,VALID,0.431108,
2005-11-15, 00:23:00,VALID,917.47,VALID,0,VALID,99.9125,VALID,-0.0679233,VALID,19.8255,VALID,16,VALID,0.339134,
2005-11-15, 00:24:00,VALID,917.454,VALID,0,VALID,99.8057,VALID,-0.0679233,VALID,19.8354,VALID,16,VALID,0.498437,
2005-11-15, 00:25:00,VALID,917.431,VALID,0,VALID,99.8197,VALID,-0.0169808,VALID,19.8513,VALID,15,VALID,0.624273,
2005-11-15, 00:26:00,VALID,917.41,VALID,0,VALID,99.7815,VALID,-0.0509425,VALID,19.861,VALID,12,VALID,0.481051,
2005-11-15, 00:27:00,VALID,917.373,VALID,0,VALID,99.6722,VALID,-0.0679233,VALID,19.8511,VALID,10,VALID,0.969792,
2005-11-15, 00:28:00,VALID,917.349,VALID,0,VALID,99.4509,VALID,-0.0339617,VALID,19.8317,VALID,356,VALID,0.764535,
2005-11-15, 00:29:00,VALID,917.326,VALID,0,VALID,99.4713,VALID,-0.0509425,VALID,19.8322,VALID,16,VALID,0.725781,
2005-11-15, 00:30:00,VALID,917.307,VALID,0,VALID,99.5348,VALID,-0.0849042,VALID,19.8287,VALID,343,VALID,0.478906,
2005-11-15, 00:31:00,VALID,917.287,VALID,0,VALID,99.5959,VALID,-0.0679233,VALID,19.8183,VALID,18,VALID,0.362827,
2005-11-15, 00:32:00,VALID,917.274,VALID,0,VALID,99.5476,VALID,-0.0169808,VALID,19.8354,VALID,353,VALID,0.315407,
2005-11-15, 00:33:00,VALID,917.261,VALID,0,VALID,99.6239,VALID,-0.0169808,VALID,19.832,VALID,346,VALID,0.622024,
2005-11-15, 00:34:00,VALID,917.246,VALID,0,VALID,99.4713,VALID,-0.0339617,VALID,19.822,VALID,3,VALID,0.784412,
2005-11-15, 00:35:00,VALID,917.23,VALID,0,VALID,99.4446,VALID,-0.0169808,VALID,19.8058,VALID,11,VALID,0.783482,
2005-11-15, 00:36:00,VALID,917.214,VALID,0,VALID,99.5666,VALID,0,VALID,19.8255,VALID,12,VALID,0.63899,
2005-11-15, 00:37:00,VALID,917.19,VALID,0,VALID,99.4687,VALID,-0.0509425,VALID,19.816,VALID,343,VALID,0.744549,
2005-11-15, 00:38:00,VALID,917.177,VALID,0,VALID,99.4458,VALID,-0.0339617,VALID,19.7934,VALID,339,VALID,0.491997,
2005-11-15, 00:39:00,VALID,917.161,VALID,0,VALID,99.5768,VALID,0,VALID,19.7929,VALID,6,VALID,0.629297,
2005-11-15, 00:40:00,VALID,917.159,VALID,0,VALID,99.6302,VALID,-0.0169808,VALID,19.7862,VALID,348,VALID,1.03068,
2005-11-15, 00:41:00,VALID,917.141,VALID,0,VALID,99.6353,VALID,0,VALID,19.787,VALID,346,VALID,0.610305,
2005-11-15, 00:42:00,VALID,917.115,VALID,0,VALID,99.7993,VALID,-0.0339617,VALID,19.7802,VALID,349,VALID,0.310454,
2005-11-15, 00:43:00,VALID,917.098,VALID,0,VALID,99.9504,VALID,-0.0169808,VALID,19.7996,VALID,349,VALID,0.393102,
2005-11-15, 00:44:00,VALID,917.073,VALID,0,VALID,99.9842,VALID,0,VALID,19.8026,VALID,349,VALID,0.220749,
2005-11-15, 00:45:00,VALID,917.041,VALID,0,VALID,100,VALID,0,VALID,19.8185,VALID,5,VALID,0.455171,
2005-11-15, 00:46:00,VALID,917.014,VALID,0,VALID,100,VALID,-0.0169808,VALID,19.8484,VALID,9,VALID,0.360709,
2005-11-15, 00:47:00,VALID,916.994,VALID,0,VALID,99.9832,VALID,-0.0339617,VALID,19.8414,VALID,6,VALID,0.389844,
2005-11-15, 00:48:00,VALID,916.977,VALID,0,VALID,100,VALID,0,VALID,19.832,VALID,359,VALID,0.434832,
2005-11-15, 00:49:00,VALID,916.958,VALID,0,VALID,100,VALID,0,VALID,19.8379,VALID,11,VALID,0.678052,
2005-11-15, 00:50:00,VALID,916.953,VALID,0,VALID,99.9964,VALID,-0.0339617,VALID,19.8541,VALID,21,VALID,0.859184,
2005-11-15, 00:51:00,VALID,916.938,VALID,0,VALID,99.8858,VALID,-0.0169808,VALID,19.8672,VALID,345,VALID,0.947545,
2005-11-15, 00:52:00,VALID,916.925,VALID,0,VALID,99.7625,VALID,0,VALID,19.8439,VALID,357,VALID,1.03069,
2005-11-15, 00:53:00,VALID,916.916,VALID,0,VALID,99.7447,VALID,0,VALID,19.8317,VALID,11,VALID,0.911519,
2005-11-15, 00:54:00,VALID,916.882,VALID,0,VALID,99.7904,VALID,0,VALID,19.8153,VALID,356,VALID,0.759487,
2005-11-15, 00:55:00,VALID,916.847,VALID,0,VALID,99.6684,VALID,-0.0339617,VALID,19.7959,VALID,338,VALID,0.836523,
2005-11-15, 00:56:00,VALID,916.802,VALID,0,VALID,99.723,VALID,-0.0169808,VALID,19.7805,VALID,333,VALID,0.492569,
2005-11-15, 00:57:00,VALID,916.755,VALID,0,VALID,99.8527,VALID,-0.0339617,VALID,19.7641,VALID,333,VALID,0.129464,
2005-11-15, 00:58:00,VALID,916.707,VALID,0,VALID,99.9468,VALID,-0.0169808,VALID,19.7604,VALID,333,VALID,0.389946,
2005-11-15, 00:59:00,VALID,916.682,VALID,0,VALID,99.8337,VALID,-0.0169808,VALID,19.7507,VALID,344,VALID,0.582698,
2005-11-15, 01:00:00,VALID,916.658,VALID,0,VALID,99.8807,VALID,0,VALID,19.7708,VALID,1,VALID,0.0554315,
2005-11-15, 01:01:00,VALID,916.645,VALID,0,VALID,99.9507,VALID,-0.0339617,VALID,19.7703,VALID,1,VALID,0.00117188,
2005-11-15, 01:02:00,VALID,916.637,VALID,0,VALID,99.971,VALID,0,VALID,19.7899,VALID,1,VALID,0.0719866,
2005-11-15, 01:03:00,VALID,916.638,VALID,0,VALID,99.8858,VALID,0,VALID,19.7894,VALID,1,VALID,0.0694247,
2005-11-15, 01:04:00,VALID,916.648,VALID,0,VALID,99.7777,VALID,-0.0169808,VALID,19.7892,VALID,1,VALID,0.101918,
2005-11-15, 01:05:00,VALID,916.642,VALID,0,VALID,99.7917,VALID,0,VALID,19.7924,VALID,4,VALID,0.47674,
2005-11-15, 01:06:00,VALID,916.658,VALID,0,VALID,99.7459,VALID,-0.0169808,VALID,19.7894,VALID,10,VALID,0.514737,
2005-11-15, 01:07:00,VALID,916.647,VALID,0,VALID,99.6569,VALID,0,VALID,19.7693,VALID,360,VALID,0.683408,
2005-11-15, 01:08:00,VALID,916.636,VALID,0,VALID,99.6595,VALID,-0.0169808,VALID,19.7507,VALID,355,VALID,0.412609,
2005-11-15, 01:09:00,VALID,916.645,VALID,0,VALID,99.6773,VALID,0,VALID,19.7574,VALID,355,VALID,0.391741,
2005-11-15, 01:10:00,VALID,916.63,VALID,0,VALID,99.615,VALID,0,VALID,19.7479,VALID,354,VALID,0.882254,
2005-11-15, 01:11:00,VALID,916.626,VALID,0,VALID,99.6213,VALID,0,VALID,19.735,VALID,27,VALID,0.642299,
2005-11-15, 01:12:00,VALID,916.635,VALID,0,VALID,99.5768,VALID,-0.0169808,VALID,19.7156,VALID,5,VALID,0.776296,
2005-11-15, 01:13:00,VALID,916.646,VALID,0,VALID,99.5908,VALID,0,VALID,19.7024,VALID,8,VALID,0.734738,
2005-11-15, 01:14:00,VALID,916.648,VALID,0,VALID,99.5641,VALID,-0.0339617,VALID,19.696,VALID,5,VALID,0.750558,
2005-11-15, 01:15:00,VALID,916.646,VALID,0,VALID,99.6124,VALID,-0.0169808,VALID,19.6965,VALID,4,VALID,0.604802,
2005-11-15, 01:16:00,VALID,916.634,VALID,0,VALID,99.62,VALID,-0.0339617,VALID,19.6865,VALID,3,VALID,0.449491,
2005-11-15, 01:17:00,VALID,916.642,VALID,0,VALID,99.6111,VALID,0,VALID,19.6734,VALID,3,VALID,0.326029,
2005-11-15, 01:18:00,VALID,916.624,VALID,0,VALID,99.6366,VALID,-0.0169808,VALID,19.6706,VALID,354,VALID,0.696837,
2005-11-15, 01:19:00,VALID,916.606,VALID,0,VALID,99.737,VALID,0,VALID,19.6542,VALID,330,VALID,0.547569,
2005-11-15, 01:20:00,VALID,916.592,VALID,0,VALID,99.7472,VALID,0,VALID,19.6378,VALID,327,VALID,0.546875,
2005-11-15, 01:21:00,VALID,916.567,VALID,0,VALID,99.7548,VALID,0,VALID,19.6281,VALID,327,VALID,0.247692,
2005-11-15, 01:22:00,VALID,916.542,VALID,0,VALID,99.8438,VALID,-0.0679233,VALID,19.6448,VALID,327,VALID,0.0669389,
2005-11-15, 01:23:00,VALID,916.519,VALID,0,VALID,99.8286,VALID,-0.0509425,VALID,19.651,VALID,327,VALID,0.190848,
2005-11-15, 01:24:00,VALID,916.51,VALID,0,VALID,99.7663,VALID,-0.0169808,VALID,19.651,VALID,327,VALID,0.0359003,
2005-11-15, 01:25:00,VALID,916.516,VALID,0,VALID,99.7752,VALID,0,VALID,19.6515,VALID,328,VALID,0.335751,
2005-11-15, 01:26:00,VALID,916.514,VALID,0,VALID,99.8604,VALID,-0.0339617,VALID,19.6577,VALID,338,VALID,0.529726,
2005-11-15, 01:27:00,VALID,916.522,VALID,0,VALID,99.8655,VALID,0,VALID,19.6903,VALID,338,VALID,0.397135,
2005-11-15, 01:28:00,VALID,916.526,VALID,0,VALID,99.8566,VALID,0,VALID,19.693,VALID,359,VALID,0.572311,
2005-11-15, 01:29:00,VALID,916.531,VALID,0,VALID,99.7497,VALID,0,VALID,19.7221,VALID,7,VALID,0.5867,
2005-11-15, 01:30:00,VALID,916.517,VALID,0,VALID,99.6646,VALID,-0.0339617,VALID,19.7186,VALID,7,VALID,0.570135,
2005-11-15, 01:31:00,VALID,916.511,VALID,0,VALID,99.6111,VALID,-0.0169808,VALID,19.738,VALID,7,VALID,0.556362,
2005-11-15, 01:32:00,VALID,916.496,VALID,0,VALID,99.5704,VALID,-0.0169808,VALID,19.735,VALID,7,VALID,0.568496,
2005-11-15, 01:33:00,VALID,916.476,VALID,0,VALID,99.4878,VALID,0,VALID,19.7445,VALID,7,VALID,0.565848,
2005-11-15, 01:34:00,VALID,916.45,VALID,0,VALID,99.4547,VALID,-0.0169808,VALID,19.7442,VALID,7,VALID,0.520064,
2005-11-15, 01:35:00,VALID,916.431,VALID,0,VALID,99.4026,VALID,0,VALID,19.7412,VALID,6,VALID,0.420422,
2005-11-15, 01:36:00,VALID,916.392,VALID,0,VALID,99.3276,VALID,0,VALID,19.7415,VALID,5,VALID,0.516927,
2005-11-15, 01:37:00,VALID,916.379,VALID,0,VALID,99.2945,VALID,0,VALID,19.7114,VALID,337,VALID,0.688408,
2005-11-15, 01:38:00,VALID,916.352,VALID,0,VALID,99.2729,VALID,-0.0339617,VALID,19.7288,VALID,322,VALID,0.357422,
2005-11-15, 01:39:00,VALID,916.339,VALID,0,VALID,99.3327,VALID,-0.0339617,VALID,19.7285,VALID,322,VALID,0.22154,
2005-11-15, 01:40:00,VALID,916.322,VALID,0,VALID,99.3708,VALID,0,VALID,19.738,VALID,322,VALID,0.263021,
2005-11-15, 01:41:00,VALID,916.322,VALID,0,VALID,99.4471,VALID,0,VALID,19.7609,VALID,322,VALID,0.131597,
2005-11-15, 01:42:00,VALID,916.316,VALID,0,VALID,99.4344,VALID,-0.0169808,VALID,19.8001,VALID,322,VALID,0.00260417,
2005-11-15, 01:43:00,VALID,916.292,VALID,0,VALID,99.3734,VALID,0,VALID,19.8255,VALID,322,VALID,0.00177557,
2005-11-15, 01:44:00,VALID,916.285,VALID,0,VALID,99.3072,VALID,0,VALID,19.8511,VALID,322,VALID,0.0546875,
2005-11-15, 01:45:00,VALID,916.272,VALID,0,VALID,99.2437,VALID,0,VALID,19.8772,VALID,322,VALID,0.0544922,
2005-11-15, 01:46:00,VALID,916.241,VALID,0,VALID,99.0923,VALID,0,VALID,19.8804,VALID,322,VALID,0.121911,
2005-11-15, 01:47:00,VALID,916.222,VALID,0,VALID,99.1076,VALID,0,VALID,19.8767,VALID,322,VALID,0.220424,
2005-11-15, 01:48:00,VALID,916.205,VALID,0,VALID,99.1114,VALID,0,VALID,19.8665,VALID,322,VALID,0.253239,
2005-11-15, 01:49:00,VALID,916.186,VALID,0,VALID,99.1623,VALID,0,VALID,19.8864,VALID,340,VALID,0.498001,
2005-11-15, 01:50:00,VALID,916.174,VALID,0,VALID,99.119,VALID,0,VALID,19.8896,VALID,6,VALID,0.57832,
2005-11-15, 01:51:00,VALID,916.17,VALID,0,VALID,99.0338,VALID,0,VALID,19.8829,VALID,8,VALID,0.481707,
2005-11-15, 01:52:00,VALID,916.164,VALID,0,VALID,98.9728,VALID,0,VALID,19.8869,VALID,12,VALID,0.372638,
2005-11-15, 01:53:00,VALID,916.176,VALID,0,VALID,98.9741,VALID,0,VALID,19.87,VALID,12,VALID,0.159598,
2005-11-15, 01:54:00,VALID,916.185,VALID,0,VALID,98.9219,VALID,0,VALID,19.8672,VALID,10,VALID,0.204241,
2005-11-15, 01:55:00,VALID,916.191,VALID,0,VALID,98.894,VALID,0.0169808,VALID,19.831,VALID,8,VALID,0.321975,
2005-11-15, 01:56:00,VALID,916.18,VALID,0,VALID,98.9525,VALID,0.0169808,VALID,19.8218,VALID,8,VALID,0.326172,
2005-11-15, 01:57:00,VALID,916.175,VALID,0,VALID,99.058,VALID,0,VALID,19.8123,VALID,6,VALID,0.377668,
2005-11-15, 01:58:00,VALID,916.169,VALID,0,VALID,99.1292,VALID,0.0169808,VALID,19.7857,VALID,356,VALID,0.359933,
2005-11-15, 01:59:00,VALID,916.16,VALID,0,VALID,99.2258,VALID,0,VALID,19.7994,VALID,356,VALID,0.194618,
2005-11-15, 02:00:00,VALID,916.156,VALID,0,VALID,99.2589,VALID,-0.0339617,VALID,19.8058,VALID,356,VALID,0.293857,
2005-11-15, 02:01:00,VALID,916.148,VALID,0,VALID,99.1534,VALID,0,VALID,19.8029,VALID,355,VALID,0.440173,
2005-11-15, 02:02:00,VALID,916.161,VALID,0,VALID,99.1852,VALID,0,VALID,19.8061,VALID,355,VALID,0.319111,
2005-11-15, 02:03:00,VALID,916.163,VALID,0,VALID,99.2182,VALID,-0.0339617,VALID,19.8257,VALID,355,VALID,0.308685,
2005-11-15, 02:04:00,VALID,916.175,VALID,0,VALID,99.0898,VALID,0,VALID,19.8223,VALID,355,VALID,0.364281,
2005-11-15, 02:05:00,VALID,916.18,VALID,0,VALID,99.0148,VALID,0,VALID,19.8123,VALID,348,VALID,0.579492,
2005-11-15, 02:06:00,VALID,916.185,VALID,0,VALID,99.0758,VALID,0,VALID,19.8096,VALID,342,VALID,0.499219,
2005-11-15, 02:07:00,VALID,916.189,VALID,0,VALID,99.2589,VALID,0,VALID,19.8255,VALID,342,VALID,0.25744,
2005-11-15, 02:08:00,VALID,916.2,VALID,0,VALID,99.2284,VALID,0,VALID,19.8484,VALID,342,VALID,0.320858,
2005-11-15, 02:09:00,VALID,916.19,VALID,0,VALID,99.119,VALID,0.0169808,VALID,19.8285,VALID,342,VALID,0.234766,
2005-11-15, 02:10:00,VALID,916.186,VALID,0,VALID,99.1813,VALID,0.0169808,VALID,19.8347,VALID,342,VALID,0.00872093,
2005-11-15, 02:11:00,VALID,916.175,VALID,0,VALID,99.189,VALID,-0.0169808,VALID,19.8374,VALID,342,VALID,0.0210193,
2005-11-15, 02:12:00,VALID,916.171,VALID,0,VALID,99.1139,VALID,0,VALID,19.8543,VALID,342,VALID,0,
2005-11-15, 02:13:00,VALID,916.176,VALID,0,VALID,99.1496,VALID,-0.0339617,VALID,19.864,VALID,342,VALID,0,
2005-11-15, 02:14:00,VALID,916.166,VALID,0,VALID,99.119,VALID,0.0339617,VALID,19.8764,VALID,342,VALID,0,
2005-11-15, 02:15:00,VALID,916.155,VALID,0,VALID,99.1152,VALID,0,VALID,19.8869,VALID,342,VALID,0.158203,
2005-11-15, 02:16:00,VALID,916.154,VALID,0,VALID,99.0745,VALID,-0.0169808,VALID,19.8926,VALID,342,VALID,0.206745,
2005-11-15, 02:17:00,VALID,916.14,VALID,0,VALID,99.0961,VALID,0.0169808,VALID,19.9252,VALID,342,VALID,0.0649306,
2005-11-15, 02:18:00,VALID,916.114,VALID,0,VALID,99.0249,VALID,0.0169808,VALID,19.9413,VALID,342,VALID,0.194196,
2005-11-15, 02:19:00,VALID,916.087,VALID,0,VALID,98.8685,VALID,-0.0509425,VALID,19.948,VALID,342,VALID,0.0857515,
2005-11-15, 02:20:00,VALID,916.047,VALID,0,VALID,98.838,VALID,-0.0679233,VALID,19.9483,VALID,342,VALID,0.00985054,
2005-11-15, 02:21:00,VALID,916.042,VALID,0,VALID,98.9397,VALID,-0.0339617,VALID,19.9612,VALID,342,VALID,0.00272529,
2005-11-15, 02:22:00,VALID,916.013,VALID,0,VALID,99.0237,VALID,-0.0509425,VALID,19.9744,VALID,342,VALID,0.0989583,
2005-11-15, 02:23:00,VALID,916.003,VALID,0,VALID,98.9423,VALID,-0.0339617,VALID,19.9664,VALID,342,VALID,0.230923,
2005-11-15, 02:24:00,VALID,915.972,VALID,0,VALID,98.8952,VALID,-0.0169808,VALID,19.9669,VALID,342,VALID,0.134301,
2005-11-15, 02:25:00,VALID,915.958,VALID,0,VALID,98.9245,VALID,0,VALID,19.9809,VALID,342,VALID,0.170898,
2005-11-15, 02:26:00,VALID,915.932,VALID,0,VALID,98.8367,VALID,-0.0169808,VALID,19.9707,VALID,342,VALID,0.206101,
2005-11-15, 02:27:00,VALID,915.919,VALID,0,VALID,98.9029,VALID,-0.0169808,VALID,19.9739,VALID,342,VALID,0.135742,
2005-11-15, 02:28:00,VALID,915.897,VALID,0,VALID,98.8431,VALID,-0.0169808,VALID,19.9766,VALID,342,VALID,0.292878,
2005-11-15, 02:29:00,VALID,915.864,VALID,0,VALID,98.824,VALID,0,VALID,19.9833,VALID,342,VALID,0.177455,
2005-11-15, 02:30:00,VALID,915.843,VALID,0,VALID,98.8825,VALID,-0.0339617,VALID,19.9965,VALID,342,VALID,0.0432292,
2005-11-15, 02:31:00,VALID,915.829,VALID,0,VALID,98.8329,VALID,-0.0509425,VALID,20.0032,VALID,342,VALID,0.00742187,
2005-11-15, 02:32:00,VALID,915.802,VALID,0,VALID,98.7821,VALID,-0.0339617,VALID,19.9766,VALID,342,VALID,0.136285,
2005-11-15, 02:33:00,VALID,915.789,VALID,0,VALID,98.8227,VALID,-0.0509425,VALID,19.9672,VALID,342,VALID,0.0881696,
2005-11-15, 02:34:00,VALID,915.782,VALID,0,VALID,98.9804,VALID,-0.0169808,VALID,19.9769,VALID,342,VALID,0.0435014,
2005-11-15, 02:35:00,VALID,915.764,VALID,0,VALID,99.0415,VALID,0,VALID,19.9833,VALID,342,VALID,0,
2005-11-15, 02:36:00,VALID,915.755,VALID,0,VALID,99.1038,VALID,-0.0169808,VALID,19.9898,VALID,342,VALID,0.0432413,
2005-11-15, 02:37:00,VALID,915.755,VALID,0,VALID,99.0694,VALID,-0.0339617,VALID,19.99,VALID,342,VALID,0.0634084,
2005-11-15, 02:38:00,VALID,915.763,VALID,0,VALID,99.1089,VALID,-0.0339617,VALID,19.9933,VALID,342,VALID,0.00266335,
2005-11-15, 02:39:00,VALID,915.747,VALID,0,VALID,99.1063,VALID,-0.0339617,VALID,19.9958,VALID,342,VALID,0.202947,
2005-11-15, 02:40:00,VALID,915.747,VALID,0,VALID,99.0504,VALID,0.0169808,VALID,20.0062,VALID,342,VALID,0.30069,
2005-11-15, 02:41:00,VALID,915.736,VALID,0,VALID,98.927,VALID,-0.0169808,VALID,19.9895,VALID,342,VALID,0.377477,
2005-11-15, 02:42:00,VALID,915.716,VALID,0,VALID,98.8622,VALID,-0.0509425,VALID,19.9696,VALID,342,VALID,0.329215,
2005-11-15, 02:43:00,VALID,915.71,VALID,0,VALID,98.9792,VALID,-0.0339617,VALID,19.9935,VALID,342,VALID,0.242006,
2005-11-15, 02:44:00,VALID,915.707,VALID,0,VALID,98.9817,VALID,-0.0339617,VALID,19.9868,VALID,342,VALID,0.244234,
2005-11-15, 02:45:00,VALID,915.685,VALID,0,VALID,98.9639,VALID,-0.0339617,VALID,19.9935,VALID,342,VALID,0.348895,
2005-11-15, 02:46:00,VALID,915.68,VALID,0,VALID,98.9855,VALID,-0.0339617,VALID,19.9831,VALID,342,VALID,0.283975,
2005-11-15, 02:47:00,VALID,915.686,VALID,0,VALID,98.8952,VALID,-0.0169808,VALID,19.9801,VALID,342,VALID,0.261083,
2005-11-15, 02:48:00,VALID,915.69,VALID,0,VALID,98.8647,VALID,-0.0169808,VALID,19.9446,VALID,342,VALID,0.413154,
2005-11-15, 02:49:00,VALID,915.685,VALID,0,VALID,98.8024,VALID,0,VALID,19.9351,VALID,342,VALID,0.618019,
2005-11-15, 02:50:00,VALID,915.69,VALID,0,VALID,98.824,VALID,-0.0509425,VALID,19.8988,VALID,343,VALID,0.570486,
2005-11-15, 02:51:00,VALID,915.672,VALID,0,VALID,98.955,VALID,-0.0509425,VALID,19.86,VALID,335,VALID,0.611919,
2005-11-15, 02:52:00,VALID,915.666,VALID,0,VALID,99.1775,VALID,0,VALID,19.8608,VALID,332,VALID,0.319618,
2005-11-15, 02:53:00,VALID,915.648,VALID,0,VALID,99.325,VALID,0,VALID,19.8804,VALID,332,VALID,0.308681,
2005-11-15, 02:54:00,VALID,915.622,VALID,0,VALID,99.4217,VALID,0,VALID,19.8667,VALID,333,VALID,0.261018,
2005-11-15, 02:55:00,VALID,915.606,VALID,0,VALID,99.4573,VALID,-0.0339617,VALID,19.8769,VALID,333,VALID,0.297828,
2005-11-15, 02:56:00,VALID,915.579,VALID,0,VALID,99.6518,VALID,-0.0339617,VALID,19.8769,VALID,333,VALID,0.192894,
2005-11-15, 02:57:00,VALID,915.572,VALID,0,VALID,99.7943,VALID,-0.0339617,VALID,19.8866,VALID,340,VALID,0.448946,
2005-11-15, 02:58:00,VALID,915.57,VALID,0,VALID,99.5628,VALID,-0.0339617,VALID,19.8576,VALID,351,VALID,0.816497,
2005-11-15, 02:59:00,VALID,915.575,VALID,0,VALID,99.4255,VALID,-0.0169808,VALID,19.815,VALID,333,VALID,0.561435,
2005-11-15, 03:00:00,VALID,915.576,VALID,0,VALID,99.5107,VALID,-0.0169808,VALID,19.8026,VALID,335,VALID,0.502486,
2005-11-15, 03:01:00,VALID,915.582,VALID,0,VALID,99.5336,VALID,-0.0679233,VALID,19.7768,VALID,335,VALID,0.30923,
2005-11-15, 03:02:00,VALID,915.588,VALID,0,VALID,99.5692,VALID,-0.0169808,VALID,19.7671,VALID,335,VALID,0.316034,
2005-11-15, 03:03:00,VALID,915.587,VALID,0,VALID,99.6658,VALID,-0.0339617,VALID,19.7571,VALID,335,VALID,0.272892,
2005-11-15, 03:04:00,VALID,915.578,VALID,0,VALID,99.7815,VALID,-0.0169808,VALID,19.7802,VALID,336,VALID,0.347384,
2005-11-15, 03:05:00,VALID,915.57,VALID,0,VALID,99.7218,VALID,-0.0509425,VALID,19.7805,VALID,343,VALID,0.397035,
2005-11-15, 03:06:00,VALID,915.558,VALID,0,VALID,99.5577,VALID,-0.0679233,VALID,19.7504,VALID,345,VALID,0.28853,
2005-11-15, 03:07:00,VALID,915.541,VALID,0,VALID,99.6773,VALID,-0.0339617,VALID,19.7574,VALID,345,VALID,0.333274,
2005-11-15, 03:08:00,VALID,915.539,VALID,0,VALID,99.7091,VALID,-0.0339617,VALID,19.7765,VALID,345,VALID,0.230923,
2005-11-15, 03:09:00,VALID,915.538,VALID,0,VALID,99.5781,VALID,-0.0339617,VALID,19.7807,VALID,345,VALID,0.233073,
2005-11-15, 03:10:00,VALID,915.529,VALID,0,VALID,99.4242,VALID,-0.0679233,VALID,19.7534,VALID,345,VALID,0.268293,
2005-11-15, 03:11:00,VALID,915.527,VALID,0,VALID,99.3899,VALID,-0.0679233,VALID,19.7773,VALID,345,VALID,0.28776,
2005-11-15, 03:12:00,VALID,915.509,VALID,0,VALID,99.4891,VALID,-0.0679233,VALID,19.7773,VALID,345,VALID,0.186384,
2005-11-15, 03:13:00,VALID,915.496,VALID,0,VALID,99.5704,VALID,-0.0679233,VALID,19.7765,VALID,345,VALID,0.240104,
2005-11-15, 03:14:00,VALID,915.496,VALID,0,VALID,99.5081,VALID,-0.0509425,VALID,19.7897,VALID,345,VALID,0.28125,
2005-11-15, 03:15:00,VALID,915.496,VALID,0,VALID,99.5387,VALID,-0.0339617,VALID,19.7996,VALID,345,VALID,0.234375,
2005-11-15, 03:16:00,VALID,915.473,VALID,0,VALID,99.2347,VALID,-0.0679233,VALID,19.7932,VALID,337,VALID,0.383765,
2005-11-15, 03:17:00,VALID,915.458,VALID,0,VALID,99.0567,VALID,-0.0509425,VALID,19.7897,VALID,325,VALID,0.266158,
2005-11-15, 03:18:00,VALID,915.449,VALID,0,VALID,99.0491,VALID,-0.0169808,VALID,19.7733,VALID,325,VALID,0.27474,
2005-11-15, 03:19:00,VALID,915.435,VALID,0,VALID,99.3683,VALID,-0.0339617,VALID,19.7862,VALID,316,VALID,0.414807,
2005-11-15, 03:20:00,VALID,915.427,VALID,0,VALID,99.6124,VALID,-0.0509425,VALID,19.7894,VALID,313,VALID,0.240057,
2005-11-15, 03:21:00,VALID,915.403,VALID,0,VALID,99.7637,VALID,0,VALID,19.7867,VALID,313,VALID,0.090843,
2005-11-15, 03:22:00,VALID,915.379,VALID,0,VALID,99.957,VALID,0,VALID,19.7832,VALID,313,VALID,0.28418,
2005-11-15, 03:23:00,VALID,915.37,VALID,0,VALID,99.9906,VALID,-0.0169808,VALID,19.7964,VALID,328,VALID,0.462847,
2005-11-15, 03:24:00,VALID,915.367,VALID,0,VALID,99.9456,VALID,0,VALID,19.7698,VALID,333,VALID,0.481001,
2005-11-15, 03:25:00,VALID,915.364,VALID,0,VALID,99.9929,VALID,0,VALID,19.7606,VALID,333,VALID,0.453835,
2005-11-15, 03:26:00,VALID,915.353,VALID,0,VALID,99.999,VALID,0,VALID,19.7474,VALID,333,VALID,0.0359003,
2005-11-15, 03:27:00,VALID,915.345,VALID,0,VALID,100,VALID,-0.0169808,VALID,19.7412,VALID,333,VALID,0,
2005-11-15, 03:28:00,VALID,915.351,VALID,0,VALID,100,VALID,-0.0169808,VALID,19.7477,VALID,333,VALID,0.0646802,
2005-11-15, 03:29:00,VALID,915.352,VALID,0,VALID,100,VALID,0,VALID,19.7442,VALID,308,VALID,0.287287,
2005-11-15, 03:30:00,VALID,915.351,VALID,0,VALID,100,VALID,0,VALID,19.7641,VALID,305,VALID,0.316584,
2005-11-15, 03:31:00,VALID,915.347,VALID,0,VALID,100,VALID,-0.0339617,VALID,19.7469,VALID,305,VALID,0.0125411,
2005-11-15, 03:32:00,VALID,915.326,VALID,0,VALID,100,VALID,0,VALID,19.7643,VALID,305,VALID,0.28639,
2005-11-15, 03:33:00,VALID,915.327,VALID,0,VALID,100,VALID,0,VALID,19.7706,VALID,331,VALID,0.480564,
2005-11-15, 03:34:00,VALID,915.314,VALID,0,VALID,100,VALID,-0.0169808,VALID,19.7537,VALID,344,VALID,0.446429,
2005-11-15, 03:35:00,VALID,915.301,VALID,0,VALID,100,VALID,-0.0169808,VALID,19.7445,VALID,344,VALID,0.497452,